Regional Weather Roundup
Issued by NWS Charleston, SC

Home | Current Version | Previous Version | Text Only | Print | Product List | Glossary On
Versions: 1 2 3 4 5 6 7 8 9 10 11 12 13 14 15 16 17 18 19 20 21 22 23 24 25 26 27 28 29 30 31 32 33 34 35 36 37 38 39 40 41 42 43 44 45 46 47 48 49 50
000
ASUS42 KCHS 271227
RWRCHS

REGIONAL WEATHER ROUNDUP
NATIONAL WEATHER SERVICE CHARLESTON SC
800 AM EDT THU APR 27 2017

NOTE: "FAIR" INDICATES FEW OR NO CLOUDS BELOW 12,000 FEET WITH NO
SIGNIFICANT WEATHER AND/OR OBSTRUCTIONS TO VISIBILITY.

NOT ALL STATIONS ARE QUALITY CONTROLLED. USE DATA WITH CAUTION...
ESPECIALLY DEWPOINT OBSERVATIONS.

SCZ027-030-031-034>040-042>050-271300-
...SOUTHEAST SOUTH CAROLINA...

CITY           SKY/WX    TMP DP  RH WIND       PRES   REMARKS
N CHARLESTON   MOSUNNY   69  66  90 S6        29.92R
6HR MIN TEMP:  64; 6HR MAX TEMP:  69;

WATERFRONT PRK   N/A     71  68  90 SW7       29.90R
JOHNS ISLAND   FAIR      73  68  83 SW10      29.94R
PINOPOLIS        N/A     66  64  94 VRB3      29.81R
MONCKS CORNER  FAIR      66  64  94 SW6       29.94R
SUMMERVILLE    FAIR      64  63  94 CALM      29.94R
BEAUFORT MCAS  MOSUNNY   69  67  93 CALM      29.92R
6HR MIN TEMP:  64; 6HR MAX TEMP:  71;

BEAUFORT ARPT  FAIR      72  63  73 S5        29.93R
HILTON HEAD IS MOSUNNY   68  66  94 S6        29.92R
WALTERBORO     MOSUNNY   64  63  94 SW5       29.94R
ALLENDALE      FAIR      66  61  82 VRB3      29.92R

...SOUTHERN MIDLANDS AND PEE DEE...

CITY           SKY/WX    TMP DP  RH WIND       PRES   REMARKS
GEORGETOWN     FAIR      70  68  94 SW5       29.95R
KINGSTREE      FAIR      64  63  94 SW3       29.94R
ORANGEBURG     SUNNY     63  61  93 SW3       29.92R
6HR MIN TEMP:  59; 6HR MAX TEMP:  63;

BARNWELL       FAIR      66  61  82 VRB5      29.93R
AIKEN          FAIR      63  59  88 S6        29.95R
MANNING        FAIR      66  61  82 SW20      29.94R
COLUMBIA       MOSUNNY   64  60  87 S8        29.90R
6HR MIN TEMP:  61; 6HR MAX TEMP:  67;

SUMTER         MOSUNNY   64  62  93 SW8       29.90
6HR MIN TEMP:  60; 6HR MAX TEMP:  64;

FLORENCE       SUNNY     63  63 100 SW7       29.91R
6HR MIN TEMP:  57; 6HR MAX TEMP:  64;

MYRTLE BEACH   SUNNY     72  66  83 SW7       29.92R
N MYRTLE BEACH SUNNY     71  67  87 SW10      29.91R
6HR MIN TEMP:  66; 6HR MAX TEMP:  71;


$$

GAZ063-065-086>088-099>101-113>116-118-119-134>141-150-271300-
...SOUTHEAST GEORGIA...

CITY           SKY/WX    TMP DP  RH WIND       PRES   REMARKS
SAVANNAH ARPT  PTSUNNY   67  61  81 S5        29.92R
6HR MIN TEMP:  63; 6HR MAX TEMP:  70;

HUNTER AAF     SUNNY     67  67 100 CALM      29.90
6HR MIN TEMP:  62; 6HR MAX TEMP:  70;

FORT STEWART   PTSUNNY   64  61  88 S3        29.91R
6HR MIN TEMP:  59; 6HR MAX TEMP:  64;

STATESBORO     CLOUDY    65  65 100 CALM      29.92R
SYLVANIA       MOSUNNY  N/A N/A N/A CALM      29.93R
CLAXTON        CLOUDY   N/A N/A N/A CALM      29.93R

...CSRA...CENTRAL AND FAR SOUTHEAST GEORGIA...

CITY           SKY/WX    TMP DP  RH WIND       PRES   REMARKS
THOMSON        CLOUDY    63  58  84 W3        29.94S
AUGUSTA-BUSH   SUNNY     64  61  90 CALM      29.90R
6HR MIN TEMP:  56; 6HR MAX TEMP:  68;

AUGUSTA-DANIEL MOSUNNY   65  57  75 S7        29.91R
SWAINSBORO     CLOUDY    63  59  88 S3        29.92S
VIDALIA        CLOUDY    66  59  77 S3        29.92R
EASTMAN        CLOUDY    67  58  74 SE3       29.92S
HAZLEHURST     CLOUDY    68  63  85 S6        29.91R
ALMA           CLOUDY    67  60  78 S7        29.92R HAZE
6HR MIN TEMP:  57; 6HR MAX TEMP:  66;

WAYCROSS       SUNNY     71  63  76 S6        29.92R
JESUP          PTSUNNY   64  59  82 CALM      29.93R
BAXLEY         CLOUDY    68  64  88 S6        29.92R FOG
BRUNSWICK      CLOUDY    72  64  78 S7        29.94R
SAINT SIMONS   PTSUNNY   73  66  78 S9        29.92R
6HR MIN TEMP:  67; 6HR MAX TEMP:  73;


$$

SCZ027-028-034-036>038-045-046-048>050-GAZ119-141-271300-
...LAKE AND SUPPLEMENTAL COASTAL OBSERVATIONS...

STATION/POSITION TIME  TEMP    WIND        PRES    WAVE   SWELL
                       AIR SEA DIR/SP/G            HT/PER HT/PER/DIR
                 (UTC) (F)     (DEG/KT/KT) (MB)    (FT/S) (FT/S/D)
WINYAH BAY       1145   70     210/  6     1013.0R
LAKE MURRAY      1150   65     220/  7/ 11 1011.9R
ACE BASIN NERRS  1145   67        CALM     1013.0R
FORT PULASKI     1200   72 74  200/  4/  7 1013.6
SAPELO ISLAND    1145   70     180/  7     1013.0R

$$

ANZ835-935-AMZ111-154-330-350-352-354-370-450-454-472-271300-
...C-MAN AND BUOY OBSERVATIONS...

STATION/POSITION TIME  TEMP    WIND        PRES    WAVE   SWELL
                       AIR SEA DIR/SP/G            HT/PER HT/PER/DIR
                 (UTC) (F)     (DEG/KT/KT) (MB)    (FT/S) (FT/S/D)
BUOY 41004       1200   73 73  210/  8/ 10 1013.1
BUOY 41008       1150   73 72  170/ 12/ 14 1012.7R   4/ 9   2/ 90/ 9
FOLLY BEACH CMAN 1200   72     210/ 13/ 15 1013.9R
CAPERS NEARSHORE 1208   74 72  220/ 12/ 16 1013.1R
FRIPP NEARSHORE  1208   72 71  210/  8/ 12 1013.2R


STATION/POSITION TIME  TEMP    WIND        PRES    WAVE   SWELL
                       AIR SEA DIR/SP/G            HT/PER HT/PER/DIR
                 (UTC) (F)     (DEG/KT/KT) (MB)    (FT/S) (FT/S/D)
5E ST. MARYS GA  1200      73                N/A     3/ 8
FRYING PAN BUOY  1200   74 73  220/ 10/ 10 1013.3
BUOY 41025       1150   76 77  230/ 12/ 14 1014.0R   6/ 9   5/130/ 9
CAPE LOOKOUT NC  1200   70     180/  3/  3 1013.6R
BUOY 41002       1150   74 74  180/ 14/ 16 1016.3R   5/ 9   3/ 90/ 9
BUOY 41010       1200   76 78  160/ 16/ 19 1014.8
ST AUGUSTINE FL  1200   69 74  200/  8/  9 1014.5R


$$




USA.gov is the U.S. government's official web portal to all federal, state and local government web resources and services.